Location: Choisy
(48.7685°N, 2.4187°E)
Time: 07:39:22
(UTC+00:00)

BlueWalker 3 - Pass Details

Date: 05 March 2024
Orbit: 485 x 495 km, 53.2° (Epoch: 24 April)

Event Time Altitude Azimuth Distance (km) Brightness Sun altitude
Rises 19:30:23 0° 287° (WNW) 2,560 7.2 -18.8°
Reaches altitude 10° 19:33:15 10° 265° (W) 1,671 5.6 -19.2°
Maximum altitude 19:35:30 15° 228° (SW) 1,367 4.5 -19.6°
Drops below altitude 10° 19:37:45 10° 191° (S) 1,661 4.5 -19.9°
Enters shadow 19:38:09 - 186° (S) 1,764 4.6 -20.0°
